[[{"header":{"parameterUnit":"m.s-1","parameterCategory":1,"la1":30.2991,"la2":30.254,"lo1":-89.0895,"lo2":-89.0444,"dy":0.0017,"dx":0.0017,"nx":28,"ny":28,"refTime":"2025-07-27T21:00:00:Z","depth":0,"parameterNumber":2,"parameterNumberName":"U-component_of_WINDS"},"data":[0,0,0,0,0,0,0,0,0,0,0,0,0,0,0,0,0,0,0,0,0,0,0,0,0,0,0,0,0,0,0,0,0,0,0,0,0,0,0,0,0,0,0,0,0,0,0,0,0,0,0,0,0,0,0,0,0,0,1.7175,1.7175,0,1.7167,1.7167,1.7166,1.7121,1.712,1.7119,1.7118,1.7109,1.711,1.7111,0,0,0,0,0,0,0,0,0,0,0,0,0,1.7153,1.7154,1.7175,1.7175,1.7175,1.7167,1.7167,1.7166,1.7122,1.712,1.7119,1.7118,1.7109,1.711,1.7111,0,0,0,0,0,0,0,0,0,0,0,0,0,1.7155,1.7154,1.7175,1.7151,1.7149,1.7167,1.7167,1.7166,1.7122,1.712,1.7119,1.7117,1.7109,1.711,1.7111,1.715,0,0,1.7115,1.7115,0,0,0,0,0,0,0,0,1.7155,1.7156,1.7155,1.7153,1.7151,1.7143,1.7156,1.7161,1.7122,1.7132,1.7118,1.7116,1.7122,1.7122,1.7124,1.715,1.715,1.7115,1.7115,1.7116,1.7116,0,0,0,0,0,0,0,1.7155,1.7156,1.7172,1.7155,1.7152,1.7142,1.714,1.7156,1.7136,1.7131,1.7128,1.7128,1.7121,1.7123,1.7123,1.715,1.7115,1.7116,1.7116,1.7117,1.721,1.7212,0,0,0,0,0,0,1.7158,1.7156,1.7172,1.7171,1.7149,1.7143,1.7142,1.7147,1.7136,1.7133,1.7129,1.7126,1.7122,1.7122,1.7123,1.717,1.7116,1.7117,1.7118,1.7209,1.7211,1.7213,0,0,0,0,0,0,1.7158,1.716,1.7172,1.7163,1.7164,1.7145,1.7152,1.7148,1.715,1.7134,1.7131,1.7135,1.7121,1.7121,1.7145,1.7169,1.7118,1.7119,1.7207,1.7209,1.7212,1.7264,0,0,0,0,0,0,1.7158,1.716,1.7174,1.7164,1.7164,1.7194,1.7154,1.7149,1.7153,1.7148,1.7139,1.7136,1.7119,1.7143,1.7146,1.717,1.7119,1.7204,1.7208,1.7211,1.726,1.7268,1.7275,0,0,0,0,0,1.7157,1.7189,1.7175,1.7178,1.7182,1.7195,1.7196,1.7176,1.7155,1.7169,1.716,1.7136,1.7166,1.7146,1.7149,1.7173,1.7203,1.7207,1.7211,1.7257,1.7267,1.7275,0,0,0,0,0,0,1.7202,1.7187,1.7172,1.7201,1.72,1.7188,1.7205,1.7187,1.7191,1.7187,1.7162,1.716,1.7188,1.7183,1.7161,1.7212,1.7181,1.7185,1.7215,1.7224,1.7231,1.7233,1.712,0,0,0,0,0,1.7216,1.7228,1.7213,1.7241,1.7241,1.7224,1.7228,1.7214,1.7211,1.721,1.7202,1.7201,1.721,1.7216,1.7224,1.7259,1.7258,1.7278,1.7285,1.7291,1.7296,1.7317,1.7326,1.7226,1.7226,1.7226,0,0,1.7243,1.7237,1.7245,1.725,1.7247,1.7261,1.7223,1.7239,1.7249,1.7213,1.7235,1.7229,1.7226,1.7256,1.7269,1.7253,1.7324,1.7297,1.7302,1.7303,1.7322,1.7332,1.734,1.7229,1.7228,1.7228,0,0,1.7301,1.7297,1.732,1.7319,1.7316,1.7304,1.731,1.7301,1.7296,1.7318,1.7292,1.7304,1.7319,1.7319,1.7321,1.7382,1.7362,1.7385,1.7425,1.7445,1.7453,1.746,1.7484,1.7493,1.739,1.739,1.739,0,1.7336,1.7356,1.7334,1.7352,1.7356,1.7325,1.7349,1.7349,1.7348,1.7352,1.7333,1.7355,1.735,1.7381,1.7396,1.7398,1.7405,1.7386,1.7454,1.7461,1.7467,1.7489,1.7498,1.7393,1.7392,1.7392,1.7392,0,1.74,1.7414,1.7433,1.7435,1.744,1.7461,1.7444,1.7453,1.7438,1.7429,1.7453,1.7447,1.7454,1.746,1.7445,1.749,1.748,1.7458,1.7426,1.748,1.7501,1.7509,1.7397,1.7396,1.7395,1.7394,0,0,1.7485,1.7476,1.7484,1.7485,1.7481,1.7491,1.7512,1.7519,1.7528,1.7529,1.7547,1.7562,1.7543,1.7545,1.753,1.7548,1.76,1.7524,1.7524,1.754,1.7651,1.7669,1.7679,1.7586,1.7587,1.7589,1.7652,0,1.7542,1.7577,1.7559,1.7597,1.7611,1.7582,1.76,1.76,1.7593,1.7604,1.7595,1.7608,1.758,1.7582,1.7598,1.759,1.7622,1.7585,1.7603,1.7604,1.7606,1.7689,1.7707,1.7767,1.766,1.7661,1.7662,0,1.7613,1.7619,1.7658,1.7653,1.7658,1.7675,1.7682,1.7692,1.7692,1.7685,1.769,1.7671,1.7692,1.766,1.7689,1.7665,1.7671,1.7669,1.7671,1.7673,1.7637,1.7695,1.7785,1.7795,1.7674,1.7673,1.7672,0,1.7674,1.7691,1.7717,1.7719,1.7714,1.7727,1.7725,1.7723,1.7729,1.7735,1.774,1.7748,1.7753,1.776,1.7745,1.7722,1.7777,1.7743,1.7773,1.7774,1.7787,1.7786,1.7881,1.7789,1.7789,1.7789,1.7788,0,1.774,1.7766,1.7745,1.7761,1.779,1.777,1.7799,1.7794,1.7793,1.7809,1.7784,1.7799,1.7778,1.7791,1.7779,1.7807,1.7809,1.7805,1.7802,1.7808,1.7809,1.7813,1.7809,1.7791,1.779,1.779,1.7789,0,1.7813,1.78,1.7827,1.7821,1.782,1.7841,1.7835,1.7851,1.7842,1.7863,1.7866,1.7853,1.7868,1.7853,1.7867,1.7859,1.7897,1.7887,1.7897,1.7895,1.7927,1.7925,1.8029,1.8042,1.794,1.7941,1.7941,0,1.7857,1.7876,1.7872,1.7881,1.7882,1.7896,1.7903,1.7885,1.7893,1.7896,1.7912,1.7925,1.7934,1.7959,1.7951,1.7962,1.7953,1.7989,1.7955,1.7961,1.7956,1.7956,1.7959,1.7996,1.7997,1.7998,1.7999,0,1.7937,1.793,1.7941,1.7951,1.7961,1.7967,1.7972,1.7981,1.7962,1.7973,1.7989,1.7996,1.8011,1.8025,1.8034,1.8033,1.8014,1.801,1.8018,1.8025,1.8031,1.8031,1.7918,1.8008,1.8007,1.8006,1.8006,1.8006,1.7997,1.8014,1.8015,1.8029,1.8031,1.8037,1.8052,1.8046,1.8058,1.807,1.8058,1.8078,1.8079,1.8089,1.8091,1.8106,1.8091,1.8102,1.8105,1.8109,1.8114,1.8028,1.8107,1.8107,1.8107,1.8107,1.8106,0,1.8078,1.8077,1.8091,1.8099,1.8111,1.8092,1.8097,1.8108,1.8126,1.8129,1.8139,1.8158,1.8172,1.8166,1.8178,1.8192,1.8184,1.8196,1.8196,1.8196,1.8126,1.8119,1.8203,1.8203,1.8203,1.8203,1.8203,1.8203,1.8121,1.8149,1.8143,1.8173,1.8172,1.8191,1.8196,1.8202,1.8205,1.8227,1.8239,1.8235,1.8235,1.8248,1.826,1.8258,1.8265,1.8281,1.8276,1.821,1.8201,1.8192,1.8185,1.8282,1.8282,1.8345,1.8346,1.8346]},{"header":{"parameterUnit":"m.s-1","parameterCategory":1,"la1":30.2991,"la2":30.254,"lo1":-89.0895,"lo2":-89.0444,"dy":0.0017,"dx":0.0017,"nx":28,"ny":28,"refTime":"2025-07-27T21:00:00:Z","depth":0,"parameterNumber":3,"parameterNumberName":"V-component_of_WINDS"},"data":[0,0,0,0,0,0,0,0,0,0,0,0,0,0,0,0,0,0,0,0,0,0,0,0,0,0,0,0,0,0,0,0,0,0,0,0,0,0,0,0,0,0,0,0,0,0,0,0,0,0,0,0,0,0,0,0,0,0,-3.7105,-3.7105,0,-3.711,-3.711,-3.711,-3.7083,-3.7082,-3.7081,-3.708,-3.7082,-3.7083,-3.7084,0,0,0,0,0,0,0,0,0,0,0,0,0,-3.7071,-3.7072,-3.7105,-3.7105,-3.7105,-3.711,-3.711,-3.711,-3.7083,-3.7082,-3.7081,-3.708,-3.7082,-3.7083,-3.7084,0,0,0,0,0,0,0,0,0,0,0,0,0,-3.7082,-3.7072,-3.7105,-3.7092,-3.7091,-3.7109,-3.711,-3.711,-3.7083,-3.7082,-3.7081,-3.7079,-3.7082,-3.7083,-3.7084,-3.7114,0,0,-3.7087,-3.7088,0,0,0,0,0,0,0,0,-3.7081,-3.7083,-3.7094,-3.7093,-3.7092,-3.7094,-3.7098,-3.7111,-3.7083,-3.7086,-3.708,-3.7079,-3.7087,-3.7088,-3.7091,-3.7114,-3.7114,-3.7087,-3.7088,-3.7089,-3.7089,0,0,0,0,0,0,0,-3.7081,-3.7083,-3.7106,-3.7094,-3.7093,-3.7086,-3.7086,-3.7101,-3.7093,-3.7086,-3.7084,-3.7085,-3.7086,-3.709,-3.7091,-3.7114,-3.7087,-3.7088,-3.7089,-3.7089,-3.7165,-3.7166,0,0,0,0,0,0,-3.7082,-3.7082,-3.7106,-3.7107,-3.7084,-3.7087,-3.7088,-3.7095,-3.7092,-3.7091,-3.7086,-3.7083,-3.7088,-3.7089,-3.7091,-3.7128,-3.7089,-3.709,-3.709,-3.7163,-3.7165,-3.7166,0,0,0,0,0,0,-3.7081,-3.7084,-3.7106,-3.7094,-3.7096,-3.7089,-3.7097,-3.7095,-3.7099,-3.7093,-3.7091,-3.7091,-3.7088,-3.7089,-3.7109,-3.7127,-3.709,-3.7091,-3.7162,-3.7164,-3.7166,-3.7201,0,0,0,0,0,0,-3.708,-3.7084,-3.7096,-3.7095,-3.7097,-3.7125,-3.7098,-3.7096,-3.7101,-3.7099,-3.7097,-3.7096,-3.7087,-3.7108,-3.711,-3.7128,-3.7092,-3.716,-3.7163,-3.7165,-3.7198,-3.7204,-3.7209,0,0,0,0,0,-3.7079,-3.7104,-3.7096,-3.7099,-3.7111,-3.7126,-3.7127,-3.7117,-3.7103,-3.7115,-3.7111,-3.7096,-3.7125,-3.711,-3.7113,-3.7131,-3.7159,-3.7162,-3.7165,-3.7196,-3.7203,-3.7209,0,0,0,0,0,0,-3.7105,-3.7103,-3.7095,-3.712,-3.7124,-3.7121,-3.7136,-3.7125,-3.7132,-3.7128,-3.7115,-3.7115,-3.7138,-3.7136,-3.7119,-3.7162,-3.7139,-3.7143,-3.7162,-3.7168,-3.7174,-3.7174,-3.7093,0,0,0,0,0,-3.7114,-3.7127,-3.7124,-3.7147,-3.7149,-3.7143,-3.7148,-3.7141,-3.7143,-3.7144,-3.7142,-3.7145,-3.7155,-3.7161,-3.7169,-3.7198,-3.7198,-3.7212,-3.7217,-3.7222,-3.7225,-3.7242,-3.7249,-3.7176,-3.7176,-3.7176,0,0,-3.7132,-3.7133,-3.7142,-3.7152,-3.7154,-3.7168,-3.7144,-3.7158,-3.7169,-3.7146,-3.7166,-3.7165,-3.7166,-3.7192,-3.7202,-3.7191,-3.7246,-3.7225,-3.7229,-3.723,-3.7246,-3.7253,-3.7259,-3.7178,-3.7178,-3.7177,0,0,-3.7173,-3.7174,-3.7194,-3.7198,-3.7202,-3.7197,-3.7202,-3.7202,-3.7201,-3.7221,-3.7205,-3.7217,-3.7233,-3.7237,-3.724,-3.7285,-3.7272,-3.7288,-3.7316,-3.7333,-3.7339,-3.7344,-3.7362,-3.7368,-3.7291,-3.7292,-3.7292,0,-3.7195,-3.7216,-3.7206,-3.7223,-3.7229,-3.7211,-3.7232,-3.7235,-3.7241,-3.7246,-3.7233,-3.7256,-3.7256,-3.7282,-3.7294,-3.7297,-3.7303,-3.7288,-3.7339,-3.7344,-3.7349,-3.7366,-3.7372,-3.7294,-3.7293,-3.7293,-3.7293,0,-3.7243,-3.7258,-3.7274,-3.7283,-3.729,-3.7309,-3.7302,-3.7311,-3.7303,-3.73,-3.7322,-3.7322,-3.7331,-3.7337,-3.7328,-3.7363,-3.7356,-3.7341,-3.7319,-3.7358,-3.7374,-3.738,-3.7297,-3.7296,-3.7295,-3.7295,0,0,-3.7299,-3.7305,-3.7311,-3.7316,-3.732,-3.7331,-3.735,-3.7361,-3.737,-3.7375,-3.7391,-3.7407,-3.7394,-3.7398,-3.739,-3.7405,-3.7443,-3.7389,-3.7389,-3.7401,-3.7484,-3.7497,-3.7504,-3.7435,-3.7436,-3.7437,-3.7485,0,-3.7341,-3.7374,-3.7367,-3.74,-3.7414,-3.7399,-3.7415,-3.742,-3.7418,-3.743,-3.7427,-3.744,-3.7421,-3.7424,-3.7438,-3.7436,-3.746,-3.7432,-3.745,-3.7451,-3.7452,-3.7512,-3.7524,-3.757,-3.7491,-3.7492,-3.7492,0,-3.7393,-3.7403,-3.7438,-3.7443,-3.7449,-3.7464,-3.7475,-3.7486,-3.7491,-3.7489,-3.7496,-3.7485,-3.7504,-3.7481,-3.7508,-3.7489,-3.7496,-3.7496,-3.7498,-3.75,-3.7475,-3.7517,-3.7583,-3.7591,-3.7502,-3.7501,-3.75,0,-3.7433,-3.7455,-3.7479,-3.7484,-3.7489,-3.7501,-3.7503,-3.7508,-3.7516,-3.7525,-3.753,-3.7541,-3.7547,-3.7555,-3.7549,-3.7532,-3.7577,-3.7553,-3.7577,-3.7577,-3.7587,-3.7587,-3.7657,-3.7589,-3.7589,-3.7589,-3.7589,0,-3.7481,-3.7503,-3.7498,-3.7513,-3.7538,-3.753,-3.7555,-3.7556,-3.756,-3.7576,-3.7562,-3.7576,-3.7566,-3.7579,-3.7574,-3.7598,-3.76,-3.7599,-3.7598,-3.7601,-3.7602,-3.7607,-3.7604,-3.7591,-3.759,-3.759,-3.759,0,-3.753,-3.7527,-3.7553,-3.7558,-3.7559,-3.7578,-3.7581,-3.7596,-3.7594,-3.7613,-3.7617,-3.7614,-3.763,-3.7624,-3.7639,-3.7636,-3.7668,-3.7661,-3.7666,-3.7665,-3.769,-3.7689,-3.7767,-3.7777,-3.7701,-3.7702,-3.7703,0,-3.7561,-3.7578,-3.7586,-3.7596,-3.76,-3.7616,-3.7625,-3.7618,-3.7628,-3.7637,-3.7651,-3.7666,-3.7677,-3.7703,-3.7702,-3.7714,-3.7709,-3.7736,-3.7711,-3.7715,-3.7712,-3.7712,-3.7714,-3.7741,-3.7742,-3.7743,-3.7743,0,-3.7618,-3.7616,-3.763,-3.7645,-3.7657,-3.7667,-3.7677,-3.7685,-3.7679,-3.7691,-3.7708,-3.7717,-3.7735,-3.7751,-3.7763,-3.7765,-3.7754,-3.7751,-3.7758,-3.7762,-3.7766,-3.7766,-3.7682,-3.7749,-3.7749,-3.7748,-3.7748,-3.7748,-3.766,-3.7676,-3.7685,-3.7702,-3.7708,-3.7718,-3.7733,-3.7734,-3.7749,-3.7764,-3.7759,-3.7779,-3.7785,-3.7801,-3.7805,-3.782,-3.781,-3.7819,-3.7821,-3.7824,-3.7828,-3.7762,-3.7822,-3.7822,-3.7822,-3.7822,-3.7821,0,-3.7718,-3.7723,-3.7739,-3.7754,-3.7768,-3.7758,-3.7768,-3.778,-3.7798,-3.7806,-3.7819,-3.784,-3.7855,-3.7856,-3.7871,-3.7884,-3.7879,-3.7888,-3.7887,-3.7889,-3.7836,-3.783,-3.7892,-3.7892,-3.7891,-3.7891,-3.7891,-3.7891,-3.7749,-3.7777,-3.7777,-3.7808,-3.7813,-3.7834,-3.7842,-3.7851,-3.7858,-3.7882,-3.7896,-3.7897,-3.7902,-3.7918,-3.7932,-3.7932,-3.7939,-3.795,-3.7948,-3.7899,-3.7892,-3.7885,-3.788,-3.7951,-3.7951,-3.8,-3.8001,-3.8001]}]]